User: anonymous   Login
Location: Peebles
(55.6412°N, 3.1714°W)
Time: 18:07:00
(UTC+00:00)
Language:

FENGYUN 1C DEB - Orbit

View from above orbital plane
View from above orbital plane
View from above satellite
View from above satellite

Ground track
Ground track

The orbit data is extracted from the following two-line orbital elements,

1 30879U 99025AXR 22338.10184217  .00008761  00000-0  24963-2 0  9992
2 30879  99.3366  86.1607 0394668 238.1537 118.0648 14.08452804801438
Epoch (UTC): 04 December 2022 02:26:39
Eccentricity: 0.0394668
inclination: 99.3366°
perigee height: 579 km
apogee height: 1150 km
right ascension of ascending node: 86.1607°
argument of perigee: 238.1537°
revolutions per day: 14.08452804
mean anomaly at epoch: 118.0648°
orbit number at epoch: 80143

The dashed part of the orbit path shows where the satellite is in the earth's shadow,  

DLR